| time (UTC) | temp F | wind direction | speed MPH | gust MPH | rain 1hr in | rain 24hr in | rain mn in | humidity % | barometer mb |
| 20260507192448 | 52 | 180 | 22.0 | 0.0 | 0.00 | 0.00 | 0.00 | 1013.5 | |
| 20260507191435 | 53 | 180 | 27.0 | 0.0 | 0.00 | 0.00 | 0.00 | 1013.2 | |
| 20260507190421 | 53 | 180 | 28.0 | 0.0 | 0.00 | 0.00 | 0.00 | 1013.2 | |
| 20260507185407 | 53 | 180 | 26.0 | 0.0 | 0.00 | 0.00 | 0.00 | 1013.3 | |
| 20260507184354 | 53 | 180 | 16.0 | 0.0 | 0.00 | 0.00 | 0.00 | 1013.7 | |
| 20260507183340 | 54 | 180 | 17.0 | 0.0 | 0.00 | 0.00 | 0.00 | 1013.6 | |
| 20260507182326 | 55 | 180 | 12.0 | 0.0 | 0.00 | 0.00 | 0.00 | 1013.4 | |
| 20260507181313 | 55 | 135 | 12.0 | 0.0 | 0.00 | 0.00 | 0.00 | 1013.5 | |
| 20260507180259 | 56 | 180 | 12.0 | 0.0 | 0.00 | 0.00 | 0.00 | 1013.4 | |
| 20260507175245 | 55 | 180 | 12.0 | 0.0 | 0.00 | 0.00 | 0.00 | 1013.3 | |
| 20260507174232 | 54 | 135 | 9.0 | 0.0 | 0.00 | 0.00 | 0.00 | 1013.5 | |
| 20260507173218 | 55 | 90 | 7.0 | 0.0 | 0.00 | 0.00 | 0.00 | 1013.5 | |
| 20260507172205 | 55 | 90 | 6.0 | 0.0 | 0.00 | 0.00 | 0.00 | 1013.4 | |
| 20260507171151 | 55 | 90 | 4.0 | 0.0 | 0.00 | 0.00 | 0.00 | 1013.4 | |
| 20260507170137 | 55 | 180 | 8.0 | 0.0 | 0.00 | 0.00 | 0.00 | 1013.6 | |
| 20260507165124 | 55 | 180 | 5.0 | 0.0 | 0.00 | 0.00 | 0.00 | 1013.4 | |
| 20260507164110 | 55 | 135 | 4.0 | 0.0 | 0.00 | 0.00 | 0.00 | 1013.4 | |
| 20260507163056 | 55 | 135 | 11.0 | 0.0 | 0.00 | 0.00 | 0.00 | 1013.2 | |
| 20260507162043 | 55 | 135 | 13.0 | 0.0 | 0.00 | 0.00 | 0.00 | 1013.3 | |
| 20260507161029 | 56 | 90 | 11.0 | 0.0 | 0.00 | 0.00 | 0.00 | 1013.3 | |
| 20260507160016 | 57 | 135 | 9.0 | 0.0 | 0.00 | 0.00 | 0.00 | 1013.3 | |
| 20260507155002 | 60 | 135 | 7.0 | 0.0 | 0.00 | 0.00 | 0.00 | 1013.4 | |
| 20260507153948 | 65 | 135 | 9.0 | 0.0 | 0.00 | 0.00 | 0.00 | 1013.4 | |
| 20260507152935 | 60 | 180 | 7.0 | 0.0 | 0.00 | 0.00 | 0.00 | 1013.3 | |
| 20260507151921 | 63 | 180 | 12.0 | 0.0 | 0.00 | 0.00 | 0.00 | 1013.3 | |
| 20260507150908 | 63 | 180 | 11.0 | 0.0 | 0.00 | 0.00 | 0.00 | 1013.3 | |
| 20260507145854 | 66 | 90 | 12.0 | 0.0 | 0.00 | 0.00 | 0.00 | 1013.2 | |
| 20260507144840 | 66 | 45 | 13.0 | 0.0 | 0.00 | 0.00 | 0.00 | 1013.1 | |
| 20260507143827 | 64 | 45 | 10.0 | 0.0 | 0.00 | 0.00 | 0.00 | 1013.3 | |
| 20260507142813 | 62 | 45 | 12.0 | 0.0 | 0.00 | 0.00 | 0.00 | 1013.3 | |
| 20260507141759 | 62 | 45 | 10.0 | 0.0 | 0.00 | 0.00 | 0.00 | 1013.5 | |
| 20260507140746 | 62 | 45 | 9.0 | 0.0 | 0.00 | 0.00 | 0.00 | 1013.5 | |
| 20260507135732 | 67 | 45 | 13.0 | 0.0 | 0.00 | 0.00 | 0.00 | 1013.5 | |
| 20260507134719 | 68 | 45 | 12.0 | 0.0 | 0.00 | 0.00 | 0.00 | 1013.7 | |
| 20260507133705 | 68 | 45 | 8.0 | 0.0 | 0.00 | 0.00 | 0.00 | 1013.7 | |
| 20260507132651 | 69 | 45 | 16.0 | 0.0 | 0.00 | 0.00 | 0.00 | 1013.9 | |
| 20260507131638 | 70 | 90 | 15.0 | 0.0 | 0.00 | 0.00 | 0.00 | 1013.8 | |
| 20260507130624 | 69 | 45 | 12.0 | 0.0 | 0.00 | 0.00 | 0.00 | 1013.9 | |
| 20260507125610 | 69 | 45 | 17.0 | 0.0 | 0.00 | 0.00 | 0.00 | 1014.1 | |
| 20260507124557 | 68 | 45 | 15.0 | 0.0 | 0.00 | 0.00 | 0.00 | 1014.1 | |
| 20260507123543 | 66 | 45 | 11.0 | 0.0 | 0.00 | 0.00 | 0.00 | 1014.3 | |
| 20260507122530 | 65 | 45 | 11.0 | 0.0 | 0.00 | 0.00 | 0.00 | 1014.4 | |
| 20260507121516 | 69 | 45 | 9.0 | 0.0 | 0.00 | 0.00 | 0.00 | 1014.3 | |
| 20260507120502 | 70 | 45 | 11.0 | 0.0 | 0.00 | 0.00 | 0.00 | 1014.4 | |
| 20260507115449 | 70 | 315 | 16.0 | 0.0 | 0.00 | 0.00 | 0.00 | 1014.4 | |
| 20260507114435 | 68 | 45 | 12.0 | 0.0 | 0.00 | 0.00 | 0.00 | 1014.5 | |
| 20260507113421 | 69 | 45 | 14.0 | 0.0 | 0.00 | 0.00 | 0.00 | 1014.6 | |
| 20260507112408 | 70 | 45 | 16.0 | 0.0 | 0.00 | 0.00 | 0.00 | 1014.6 | |
| 20260507111354 | 68 | 45 | 12.0 | 0.0 | 0.00 | 0.00 | 0.00 | 1014.7 | |
| 20260507110341 | 70 | 45 | 12.0 | 0.0 | 0.00 | 0.00 | 0.00 | 1014.8 | |
| 20260507105327 | 68 | 45 | 13.0 | 0.0 | 0.00 | 0.00 | 0.00 | 1014.9 | |
| 20260507104313 | 68 | 45 | 17.0 | 0.0 | 0.00 | 0.00 | 0.00 | 1014.9 | |
| 20260507103300 | 67 | 45 | 10.0 | 0.0 | 0.00 | 0.00 | 0.00 | 1014.9 | |
| 20260507102246 | 66 | 45 | 8.0 | 0.0 | 0.00 | 0.00 | 0.00 | 1014.8 | |
| 20260507101232 | 66 | 45 | 8.0 | 0.0 | 0.00 | 0.00 | 0.00 | 1015.1 | |
| 20260507100219 | 64 | 45 | 11.0 | 0.0 | 0.00 | 0.00 | 0.00 | 1015.0 | |
| 20260507095205 | 64 | 45 | 14.0 | 0.0 | 0.00 | 0.00 | 0.00 | 1015.1 | |
| 20260507094152 | 63 | 45 | 12.0 | 0.0 | 0.00 | 0.00 | 0.00 | 1015.1 | |
| 20260507093138 | 63 | 45 | 14.0 | 0.0 | 0.00 | 0.00 | 0.00 | 1015.2 | |
| 20260507092124 | 61 | 45 | 14.0 | 0.0 | 0.00 | 0.00 | 0.00 | 1015.1 | |
| 20260507091111 | 61 | 45 | 12.0 | 0.0 | 0.00 | 0.00 | 0.00 | 1015.1 | |
| 20260507090057 | 61 | 45 | 13.0 | 0.0 | 0.00 | 0.00 | 0.00 | 1015.1 | |
| 20260507085043 | 61 | 45 | 13.0 | 0.0 | 0.00 | 0.00 | 0.00 | 1015.0 | |
| 20260507084030 | 61 | 0 | 8.0 | 0.0 | 0.00 | 0.00 | 0.00 | 1015.0 | |
| 20260507083016 | 59 | 90 | 9.0 | 0.0 | 0.00 | 0.00 | 0.00 | 1015.2 | |
| 20260507082003 | 59 | 90 | 10.0 | 0.0 | 0.00 | 0.00 | 0.00 | 1015.1 | |
| 20260507080949 | 58 | 90 | 10.0 | 0.0 | 0.00 | 0.00 | 0.00 | 1015.1 | |
| 20260507075935 | 57 | 45 | 8.0 | 0.0 | 0.00 | 0.00 | 0.00 | 1015.1 | |
| 20260507074922 | 55 | 90 | 13.0 | 0.0 | 0.00 | 0.00 | 0.00 | 1015.0 | |
| 20260507073908 | 56 | 90 | 10.0 | 0.0 | 0.00 | 0.00 | 0.00 | 1015.0 | |
| 20260507072854 | 56 | 90 | 4.0 | 0.0 | 0.00 | 0.00 | 0.00 | 1014.9 | |
| 20260507071841 | 57 | 90 | 10.0 | 0.0 | 0.00 | 0.00 | 0.00 | 1014.9 | |
| 20260507070827 | 57 | 90 | 6.0 | 0.0 | 0.00 | 0.00 | 0.00 | 1015.0 | |
| 20260507065814 | 56 | 90 | 9.0 | 0.0 | 0.00 | 0.00 | 0.00 | 1015.0 | |
| 20260507064800 | 56 | 90 | 7.0 | 0.0 | 0.00 | 0.00 | 0.00 | 1015.0 | |
| 20260507063746 | 56 | 45 | 8.0 | 0.0 | 0.00 | 0.00 | 0.00 | 1014.9 | |
| 20260507062733 | 55 | 90 | 9.0 | 0.0 | 0.00 | 0.00 | 0.00 | 1015.0 | |
| 20260507061719 | 55 | 90 | 8.0 | 0.0 | 0.00 | 0.00 | 0.00 | 1014.9 | |
| 20260507060705 | 54 | 90 | 6.0 | 0.0 | 0.00 | 0.00 | 0.00 | 1015.0 | |
| 20260507055652 | 53 | 135 | 3.0 | 0.0 | 0.00 | 0.00 | 0.00 | 1015.0 | |
| 20260507054638 | 52 | 90 | 6.0 | 0.0 | 0.00 | 0.00 | 0.00 | 1014.9 | |
| 20260507053625 | 51 | 90 | 4.0 | 0.0 | 0.00 | 0.00 | 0.00 | 1014.9 | |
| 20260507052611 | 50 | 90 | 6.0 | 0.0 | 0.00 | 0.00 | 0.00 | 1014.9 | |
| 20260507051557 | 49 | 135 | 8.0 | 0.0 | 0.00 | 0.00 | 0.00 | 1014.8 | |
| 20260507050544 | 48 | 90 | 9.0 | 0.0 | 0.00 | 0.00 | 0.00 | 1014.8 | |
| 20260507045530 | 46 | 135 | 7.0 | 0.0 | 0.00 | 0.00 | 0.00 | 1014.8 | |
| 20260507044452 | 46 | 135 | 7.0 | 0.0 | 0.00 | 0.00 | 0.00 | 1014.8 | |
| 20260507043438 | 46 | 135 | 6.0 | 0.0 | 0.00 | 0.00 | 0.00 | 1014.8 | |
| 20260507042424 | 46 | 90 | 8.0 | 0.0 | 0.00 | 0.00 | 0.00 | 1014.8 | |
| 20260507041411 | 46 | 135 | 5.0 | 0.0 | 0.00 | 0.00 | 0.00 | 1014.8 | |
| 20260507040357 | 45 | 90 | 8.0 | 0.0 | 0.00 | 0.00 | 0.00 | 1014.7 | |
| 20260507033702 | 47 | 90 | 9.0 | 0.0 | 0.00 | 0.00 | 0.00 | 1014.8 | |
| 20260507032648 | 47 | 90 | 11.0 | 0.0 | 0.00 | 0.00 | 0.00 | 1014.8 | |
| 20260507031634 | 47 | 90 | 11.0 | 0.0 | 0.00 | 0.00 | 0.00 | 1014.9 | |
| 20260507030621 | 47 | 90 | 11.0 | 0.0 | 0.00 | 0.00 | 0.00 | 1014.9 | |
| 20260507025607 | 47 | 90 | 9.0 | 0.0 | 0.00 | 0.00 | 0.00 | 1014.9 | |
| 20260507024554 | 47 | 90 | 11.0 | 0.0 | 0.00 | 0.00 | 0.00 | 1014.9 | |
| 20260507023540 | 46 | 90 | 8.0 | 0.0 | 0.00 | 0.00 | 0.00 | 1014.9 | |
| 20260507022526 | 46 | 135 | 7.0 | 0.0 | 0.00 | 0.00 | 0.00 | 1015.1 | |
| 20260507021513 | 46 | 135 | 8.0 | 0.0 | 0.00 | 0.00 | 0.00 | 1015.0 | |
| 20260507020459 | 46 | 90 | 9.0 | 0.0 | 0.00 | 0.00 | 0.00 | 1015.0 | |
| 20260507015445 | 46 | 135 | 8.0 | 0.0 | 0.00 | 0.00 | 0.00 | 1015.1 | |
| 20260507014432 | 45 | 135 | 7.0 | 0.0 | 0.00 | 0.00 | 0.00 | 1015.1 | |
| 20260507013418 | 46 | 135 | 8.0 | 0.0 | 0.00 | 0.00 | 0.00 | 1015.2 | |
| 20260507012404 | 46 | 90 | 8.0 | 0.0 | 0.00 | 0.00 | 0.00 | 1015.2 | |
| 20260507011351 | 46 | 135 | 8.0 | 0.0 | 0.00 | 0.00 | 0.00 | 1015.3 | |
| 20260507010338 | 46 | 135 | 8.0 | 0.0 | 0.00 | 0.00 | 0.00 | 1015.3 | |
| 20260507005324 | 46 | 135 | 6.0 | 0.0 | 0.00 | 0.00 | 0.00 | 1015.5 | |
| 20260507004310 | 46 | 135 | 7.0 | 0.0 | 0.00 | 0.00 | 0.00 | 1015.6 | |
| 20260507003257 | 46 | 90 | 7.0 | 0.0 | 0.00 | 0.00 | 0.00 | 1015.6 | |
| 20260507002243 | 46 | 90 | 9.0 | 0.0 | 0.00 | 0.00 | 0.00 | 1015.7 | |
| 20260507001229 | 46 | 90 | 7.0 | 0.0 | 0.00 | 0.00 | 0.00 | 1015.8 | |
| 20260507000216 | 46 | 90 | 9.0 | 0.0 | 0.00 | 0.00 | 0.00 | 1015.8 | |
| 20260506235202 | 46 | 90 | 9.0 | 0.0 | 0.00 | 0.00 | 0.00 | 1015.8 | |
| 20260506234148 | 46 | 45 | 6.0 | 0.0 | 0.00 | 0.00 | 0.00 | 1016.0 | |
| 20260506233135 | 46 | 90 | 7.0 | 0.0 | 0.00 | 0.00 | 0.00 | 1016.1 | |
| 20260506232121 | 46 | 90 | 6.0 | 0.0 | 0.00 | 0.00 | 0.00 | 1016.1 | |
| 20260506231107 | 46 | 90 | 8.0 | 0.0 | 0.00 | 0.00 | 0.00 | 1016.2 | |
| 20260506230054 | 47 | 90 | 8.0 | 0.0 | 0.00 | 0.00 | 0.00 | 1016.1 | |
| 20260506225040 | 47 | 45 | 11.0 | 0.0 | 0.00 | 0.00 | 0.00 | 1016.1 | |
| 20260506224026 | 47 | 45 | 12.0 | 0.0 | 0.00 | 0.00 | 0.00 | 1016.1 | |
| 20260506222901 | 47 | 45 | 11.0 | 0.0 | 0.00 | 0.00 | 0.00 | 1016.2 | |
| 20260506221847 | 47 | 45 | 11.0 | 0.0 | 0.00 | 0.00 | 0.00 | 1016.2 | |
| 20260506220833 | 46 | 90 | 6.0 | 0.0 | 0.00 | 0.00 | 0.00 | 1016.3 | |
| 20260506215820 | 47 | 135 | 4.0 | 0.0 | 0.00 | 0.00 | 0.00 | 1016.4 | |
| 20260506214806 | 46 | 90 | 6.0 | 0.0 | 0.00 | 0.00 | 0.00 | 1016.4 | |
| 20260506213753 | 47 | 90 | 4.0 | 0.0 | 0.00 | 0.00 | 0.00 | 1016.4 | |
| 20260506212739 | 47 | 90 | 3.0 | 0.0 | 0.00 | 0.00 | 0.00 | 1016.3 | |
| 20260506211725 | 47 | 90 | 3.0 | 0.0 | 0.00 | 0.00 | 0.00 | 1016.4 | |
| 20260506210712 | 46 | 90 | 6.0 | 0.0 | 0.00 | 0.00 | 0.00 | 1016.4 | |
| 20260506205658 | 46 | 135 | 4.0 | 0.0 | 0.00 | 0.00 | 0.00 | 1016.4 | |
| 20260506204644 | 47 | 90 | 3.0 | 0.0 | 0.00 | 0.00 | 0.00 | 1016.4 | |
| 20260506203631 | 46 | 0.0 | 0.0 | 0.00 | 0.00 | 0.00 | 1016.4 | ||
| 20260506202617 | 47 | 135 | 2.0 | 0.0 | 0.00 | 0.00 | 0.00 | 1016.4 | |
| 20260506201604 | 47 | 0.0 | 0.0 | 0.00 | 0.00 | 0.00 | 1016.4 | ||
| 20260506200550 | 48 | 315 | 2.0 | 0.0 | 0.00 | 0.00 | 0.00 | 1016.2 | |
| 20260506195536 | 48 | 315 | 4.0 | 0.0 | 0.00 | 0.00 | 0.00 | 1016.2 | |
| 20260506194523 | 48 | 45 | 6.0 | 0.0 | 0.00 | 0.00 | 0.00 | 1016.1 | |
| 20260506193509 | 48 | 0 | 4.0 | 0.0 | 0.00 | 0.00 | 0.00 | 1016.0 |